Location: Frizzleburg
(41.0764°N, 80.4548°W)
Time: 15:13:59
(UTC+00:00)

Cosmos 1933 - Pass Details

Date: 17 November 2019
Orbit: 546 x 565 km, 82.5° (Epoch: 08 December)

Event Time Altitude Azimuth Distance (km) Brightness Sun altitude
Rises 11:19:58 0° 349° (N) 2,729 6.6 -9.9°
Reaches altitude 10° 11:22:09 10° 347° (NNW) 1,829 5.7 -9.5°
Maximum altitude 11:26:08 67° 265° (W) 597 3.3 -8.8°
Drops below altitude 10° 11:30:05 10° 183° (S) 1,810 6.2 -8.1°
Sets 11:32:14 0° 180° (S) 2,698 7.1 -7.7°
